Weather in Isabela

Philippines     6°41′26″N   122°01′23″E
temp.,
°C
wind,
m/s
gust,
m/s
humid.,
%
clouds,
%
prec.,
mm/h
press.,
hPa
HPBL,
m
20 april, tue
tue2023:00+26w4785100 0.3 1009459
02:00+26w4787100 1.1 1008512
05:00+26w598499 0.1 1009694
08:00+28w6977100 0.3 10101072
11:00+29w6970100 0.2 10101211
14:00+28w71076100 0.4 10081100
17:00+27w6979100 0.3 1009979
20:00+26w5882100 0.9 1010605
21 april, wed
wed2123:00+26wsw3685100 0.1 1011366
02:00+26wsw3584100 0.3 1009336
05:00+26wsw368245 0.0 1009372
08:00+28wsw3572100 0.0 1011916
11:00+29w566731 0.0 10101130
14:00+29wnw577027 0.2 10081008
17:00+28wnw467418 0.1 1008915
20:00+27w348295 0.2 1010326
22 april, thu
thu2223:00+26wsw2385100 0.0 1010243
02:00+25wsw238695 0.1 1008261
05:00+25ssw1288100 0.0 1009140
08:00+28wsw127021 0.1 1011491
11:00+30wnw34609 0.0 10101098
14:00+30w456212 0.1 1008942
17:00+28w457158 0.0 1007768
20:00+26wsw23795 0.1 1010266
23 april, fri
fri2323:00+26sw23815 0.0 1010212
02:00+25sw128394 0.0 1008136
05:00+25sw228594 0.0 1009143
08:00+28wsw23715 0.0 1010598
11:00+30w456399 0.3 10101022
14:00+30w566383 0.6 1008958
17:00+28w457129 0.4 1008742
20:00+27w237885 0.4 1010290
24 april, sat
sat2423:00+26w237967 0.0 1010215
02:00+26w238063 0.0 1009208
05:00+26w238295 0.0 1010270
08:00+28wnw347243 0.0 1012816
11:00+30wnw55665 0.0 1011997
14:00+29wnw566721 0.3 1009912
17:00+28wnw457144 0.0 1008775
20:00+27w3481100 0.0 1011359